This demonstration page uses our WeatherBlox Daily Observations layout. Learn more.

Left ArrowRight Arrow

Hourly Observations for July 22, 2016

Temp ( °F °C ) Dew Point ( °F °C ) Humidity (%) Winds ( mph kmh ) Pressure ( in mb ) Visibility ( mi km ) Precip ( " mm )
12:53 am 00:53 Clear 71 21.7 67 19.4 87 87 N N/A 30.07 1018 10 16 N/A
1:53 am 01:53 Clear 73 22.8 68 20 84 84 ESE 3 6 30.06 1018 10 16 N/A
2:53 am 02:53 Clear 71 21.7 68 20 90 90 N N/A 30.06 1018 10 16 N/A
3:53 am 03:53 Clear 71 21.7 68 20 90 90 N N/A 30.04 1017 10 16 N/A
4:53 am 04:53 Clear 71 21.7 68 20 90 90 N N/A 30.03 1017 10 16 N/A
5:53 am 05:53 Clear 70 21.1 68 20 93 93 N N/A 30.02 1017 10 16 N/A
6:53 am 06:53 Sunny 71 21.7 68 20 90 90 N N/A 30.02 1017 8 13 N/A
7:53 am 07:53 Sunny 78 25.6 71 21.7 79 79 N N/A 30.02 1017 8 13 N/A
8:53 am 08:53 Sunny 81 27.2 74 23.3 79 79 N N/A 30.02 1017 7 11 N/A
9:53 am 09:53 Sunny 84 28.9 75 23.9 74 74 VRB 6 9 30.04 1017 7 11 N/A
10:53 am 10:53 Mostly Sunny 84 28.9 75 23.9 74 74 WNW 6 9 30.04 1017 7 11 N/A
11:18 am 11:18 Mostly Cloudy with Haze 85 29.4 76 24.4 75 75 NW 5 7 30.03 1017 6 10 N/A
11:30 am 11:30 Partly Cloudy 85 29.4 75 23.9 72 72 WNW 8 13 30.03 1017 7 11 N/A
11:53 am 11:53 Partly Cloudy 86 30 74 23.3 67 67 W 7 11 30.04 1017 8 13 N/A
12:53 pm 12:53 Partly Cloudy with Light Rain 84 28.9 75 23.9 74 74 WSW 5 7 30.04 1017 7 11 N/A
1:53 pm 13:53 Partly Cloudy 83 28.3 74 23.3 74 74 SSW 3 6 30.07 1018 8 13 N/A
2:53 pm 14:53 Mostly Cloudy 86 30 73 22.8 65 65 SW 6 9 30.04 1017 9 14 N/A
3:53 pm 15:53 Partly Cloudy 87 30.6 72 22.2 61 61 VRB 7 11 30.02 1017 10 16 N/A
4:53 pm 16:53 Sunny 88 31.1 73 22.8 61 61 W 6 9 30.00 1016 10 16 N/A
5:53 pm 17:53 Partly Cloudy 89 31.7 74 23.3 61 61 W 7 11 29.98 1015 10 16 N/A
6:53 pm 18:53 Mostly Cloudy 88 31.1 72 22.2 59 59 W 5 7 29.98 1015 10 16 N/A
7:53 pm 19:53 Mostly Cloudy 83 28.3 72 22.2 70 70 S 6 9 29.98 1015 10 16 N/A
8:41 pm 20:41 Cloudy 83 28.3 71 21.7 67 67 S 3 6 29.97 1015 10 16 N/A
8:53 pm 20:53 Cloudy 83 28.3 71 21.7 67 67 S 3 6 29.99 1016 10 16 N/A
9:53 pm 21:53 Partly Cloudy 80 26.7 71 21.7 74 74 N N/A 30.00 1016 10 16 N/A
10:29 pm 22:29 Mostly Cloudy 78 25.6 72 22.2 82 82 N N/A 30.03 1017 10 16 N/A
10:39 pm 22:39 Mostly Cloudy 78 25.6 72 22.2 82 82 N N/A 30.03 1017 10 16 N/A
10:53 pm 22:53 Mostly Clear 78 25.6 72 22.2 82 82 N N/A 30.02 1017 10 16 N/A
11:53 pm 23:53 Clear 75 23.9 71 21.7 88 88 N N/A 30.03 1017 10 16 N/A

Powered by AerisWeather